Погода в Денисово

Россия / Санкт-Петербург и Ленинградская область     60°31′26″N   30°32′56″E
темп.,
°C
ветер,
м/с
пор.,
м/с
влажн.,
%
обл.,
%
осадки,
мм/ч
давл.,
гПа
погр.,
м
1 августа, вс
вс100:00+16юз4117914 0.0 1001417
03:00+14юз310960 0.1 1002307
06:00+15юз4996100 0.0 1002433
09:00+19юз4770100 0.0 1002739
12:00+16ю3796100 9.8 1002472
15:00+22юз595539 11.6 10011392
18:00+22юз495286 0.1 10001812
21:00+16юз27914 0.4 1001221
2 августа, пн
пн200:00+15зюз412959 0.0 1002564
03:00+15юз41294100 0.0 1003560
06:00+15юз3995100 0.0 1004512
09:00+17юз467296 0.0 1004734
12:00+21юз3551100 0.0 10041413
15:00+22ю2450100 0.0 10021792
18:00+16ю3791100 1.1 1002270
21:00+15ю1298100 2.9 100147
3 августа, вт
вт300:00+15з1197100 0.7 100013
03:00+14з2597100 1.4 1000137
06:00+14зсз269399 0.1 1000154
09:00+16юз488513 0.6 1000600
12:00+20зюз585427 0.3 10011678
15:00+19зюз685438 0.3 10021555
18:00+17з586971 0.1 1004953
21:00+14з39766 0.1 1007568
4 августа, ср
ср400:00+11зюз36799 0.0 1008111
03:00+10з25825 0.0 101089
06:00+10зюз22760 0.0 101233
09:00+17з24490 0.0 1013965
12:00+20сз25325 0.0 10142355
15:00+22в143197 0.0 10152156
18:00+19ю354288 0.0 10151109
21:00+14ю22718 0.0 101637
5 августа, чт
чт500:00+11юз227310 0.0 101726
03:00+11юз227017 0.0 101720
06:00+12ююз117629 0.0 101717
09:00+16в126196 0.0 1016248
12:00+19юв235197 0.0 1016774
15:00+22в334153 0.0 10151828
18:00+18в366396 0.1 1015197
21:00+16вюв267199 0.1 1015141